Lid_Strength_Index
1 1 2 2 3 3 3 3 3 3 3 3 3 3 3 3 3 3 3 3 3 3 3 4 4 5 5 7 8 0 -1 -1 0 2 3 4 6 7 9 8 7 8 7 6 5 6 6
1 1 2 2 3 3 3 3 3 3 2 3 3 3 3 3 3 3 3 3 3 3 3 3 4 5 7 11 3 1 1 1 2 2 3 4 5 5 7 8 8 7 7 7 6 6 6
1 1 2 2 3 3 3 3 3 3 3 3 3 3 3 3 3 3 3 3 2 3 3 3 4 5 6 7 3 2 2 2 2 2 4 3 3 5 6 8 5 6 9 8 7 7 7
1 2 2 2 3 3 3 3 3 3 3 3 3 3 3 3 3 3 2 2 2 2 2 2 3 5 8 4 4 4 1 1 1 1 2 2 2 5 6 5 6 8 9 13 9 7 7
2 2 2 2 2 2 3 3 3 3 3 3 3 3 3 3 3 3 3 3 2 2 1 1 3 6 9 2 4 2 1 3 2 2 2 2 3 6 7 9 12 10 13 12 11 7 8
2 2 2 2 2 2 2 2 3 2 3 3 3 3 3 3 3 3 3 3 2 1 1 -0 1 6 6 6 5 3 2 1 3 3 4 5 6 9 10 11 15 13 12 11 12 9 8
1 1 2 2 2 2 2 2 3 2 3 3 3 3 3 3 3 3 4 4 5 6 4 5 5 4 6 5 3 4 2 3 3 5 8 7 10 12 11 10 9 10 12 13 10 8 10
1 1 2 2 2 2 2 2 3 3 3 3 3 3 4 3 4 4 6 5 3 4 7 3 3 3 4 3 4 3 2 5 6 9 7 9 11 8 7 7 9 9 11 12 10 9 10
2 2 2 2 2 2 3 3 4 4 4 3 3 4 4 3 4 6 3 2 0 1 7 6 4 4 4 4 5 5 3 5 7 8 8 10 9 6 7 8 10 10 10 11 13 10 9
2 2 2 2 2 3 3 3 4 4 4 4 4 4 4 4 6 3 5 3 2 2 9 8 7 6 4 5 7 3 3 4 6 8 7 8 7 8 9 10 9 11 8 9 11 12 16
2 2 2 2 2 3 3 3 4 5 5 5 5 5 5 5 6 4 2 1 3 5 16 7 7 4 5 6 6 6 3 5 7 7 8 9 8 8 9 8 7 10 8 9 10 13 13
3 3 3 2 2 3 3 3 4 5 5 5 5 6 5 4 5 4 2 2 4 10 14 8 7 7 7 6 6 6 5 4 4 7 7 7 6 7 8 6 7 7 9 10 11 13 17
2 3 3 3 3 3 3 4 4 5 5 6 6 7 6 3 3 1 1 4 11 13 7 9 9 7 8 8 7 8 7 8 9 12 11 8 8 6 6 9 7 8 12 17 18 19 19
3 3 3 3 3 3 3 4 4 5 5 6 7 7 6 4 3 3 4 7 14 10 10 7 7 7 8 8 8 7 8 9 7 8 10 12 12 8 6 8 9 10 11 17 20 20 18
3 3 3 3 3 3 3 4 4 5 6 6 7 5 4 4 3 4 6 11 11 9 7 8 8 10 9 8 8 8 8 9 8 7 11 12 11 7 6 6 7 10 12 9 14 14 18
3 4 4 4 4 4 3 4 4 5 6 6 5 3 4 2 2 4 7 11 8 6 6 7 9 8 10 9 9 9 9 7 7 6 6 9 12 9 7 7 7 8 7 13 13 20 20
3 3 4 4 4 4 4 4 4 5 6 6 3 5 2 0 2 5 10 9 7 5 5 7 9 9 8 9 9 9 9 7 6 6 6 7 10 10 8 10 10 10 11 10 11 12 19
4 3 4 4 4 4 4 4 4 5 6 5 3 7 1 2 6 7 9 7 8 6 5 6 7 7 8 7 9 9 9 7 6 7 9 9 10 13 11 7 7 8 9 9 14 14 13
4 4 4 4 4 4 4 4 5 5 6 6 5 5 1 2 10 9 7 6 6 6 7 6 7 6 6 9 10 8 7 5 6 7 8 8 10 13 12 10 8 10 9 11 12 11 15
4 4 4 4 4 4 4 5 5 5 5 5 5 8 5 4 5 7 8 7 7 5 6 6 6 6 7 9 8 9 8 6 5 6 3 5 9 11 13 12 10 10 8 8 10 14 16
5 4 4 4 4 4 4 5 5 5 6 5 4 7 5 9 8 7 8 8 9 9 5 5 7 7 8 11 10 10 8 8 6 4 6 8 11 10 9 8 9 9 8 8 11 11 14
5 4 5 5 4 4 4 5 5 5 6 3 6 7 5 6 6 7 9 8 8 8 7 7 8 6 7 10 9 10 9 9 9 7 8 8 12 11 11 8 8 10 8 8 9 9 10
5 5 5 5 5 5 5 4 5 5 5 3 2 3 5 8 6 7 7 7 7 6 6 5 5 7 7 7 6 6 6 6 7 9 9 9 10 12 14 10 10 12 10 9 9 8 9
5 5 5 5 5 5 5 5 4 4 5 6 4 4 6 9 7 7 6 6 7 6 7 5 5 6 5 4 5 6 6 6 6 7 7 9 11 12 14 12 16 11 8 7 8 8 8
5 5 6 6 5 5 5 5 5 5 4 5 5 4 6 9 7 7 6 6 6 6 6 5 4 4 4 6 8 10 10 9 8 6 7 7 10 14 15 15 12 10 7 8 10 11 8
5 5 5 5 5 5 5 5 5 5 4 5 5 4 4 8 8 5 7 6 7 7 6 5 4 4 5 7 9 12 12 10 11 9 7 8 8 11 12 15 17 12 7 6 7 14 8
5 5 5 6 5 5 5 5 5 4 4 4 5 4 4 7 5 5 7 7 5 6 8 6 5 5 5 8 10 11 11 8 11 11 11 10 11 12 12 13 11 7 6 6 13 13 7
5 5 5 5 5 5 5 5 5 4 4 4 5 4 5 5 5 4 4 6 6 6 8 6 7 7 7 9 10 10 11 10 10 9 10 12 12 12 12 13 15 6 7 11 9 7 6
4 4 4 3 4 4 4 4 4 4 4 4 6 4 4 5 5 2 2 2 3 3 5 5 6 6 6 9 9 9 11 11 11 12 8 11 10 11 10 12 7 6 7 6 6 6 6